Back to catalog

STARLINK-11507

AliveCommunicationsVLEO
NORAD 62519·PAYLOAD·🇺🇸 United States

Launched Jan 8, 2025 from Cape Canaveral Space Force Station

Loading…

Next Passes (next 24 hours)

TLE

FreshSource: CelesTrak SupGP

Epoch: Sep 14, 2026, 14:44 UTC

1 62519C 25004J   26257.61437500 -.00217120  00000+0 -16837-2 0  2570
2 62519  43.0007  12.0729 0001706 265.5828 329.1817 15.70983487    14

Track STARLINK-11507 in real time with AllMySat

Download on the App Store